TimeCDT,TemperatureF,Dew PointF,Humidity,Sea Level PressureIn,VisibilityMPH,Wind Direction,Wind SpeedMPH,Gust SpeedMPH,PrecipitationIn,Events,Conditions,WindDirDegrees,DateUTC
12:53 AM,55.9,46.0,69,29.93,10.0,Calm,Calm,-,N/A,,Clear,0,2013-09-22 05:53:00
1:53 AM,51.1,46.0,83,29.93,10.0,Calm,Calm,-,N/A,,Clear,0,2013-09-22 06:53:00
2:53 AM,50.0,46.0,86,29.94,10.0,Calm,Calm,-,N/A,,Clear,0,2013-09-22 07:53:00
3:53 AM,48.9,46.0,90,29.94,10.0,Calm,Calm,-,N/A,,Clear,0,2013-09-22 08:53:00
4:53 AM,48.0,46.0,93,29.95,10.0,Calm,Calm,-,N/A,,Clear,0,2013-09-22 09:53:00
5:53 AM,48.0,46.0,93,29.96,10.0,Calm,Calm,-,N/A,,Clear,0,2013-09-22 10:53:00
6:53 AM,46.9,45.0,93,29.97,10.0,Calm,Calm,-,N/A,,Clear,0,2013-09-22 11:53:00
7:53 AM,52.0,48.0,86,29.98,10.0,Calm,Calm,-,N/A,,Clear,0,2013-09-22 12:53:00
8:53 AM,57.9,50.0,75,29.99,10.0,Calm,Calm,-,N/A,,Clear,0,2013-09-22 13:53:00
9:53 AM,63.0,51.1,65,30.00,10.0,Calm,Calm,-,N/A,,Clear,0,2013-09-22 14:53:00
10:53 AM,66.9,51.1,57,30.00,10.0,NE,4.6,-,N/A,,Clear,40,2013-09-22 15:53:00
11:53 AM,70.0,48.0,46,29.99,10.0,Variable,4.6,-,N/A,,Clear,0,2013-09-22 16:53:00
12:53 PM,72.0,46.9,41,29.97,10.0,NE,6.9,-,N/A,,Clear,40,2013-09-22 17:53:00
1:53 PM,73.9,46.9,38,29.94,10.0,ESE,5.8,-,N/A,,Clear,110,2013-09-22 18:53:00
2:53 PM,75.0,46.0,36,29.93,10.0,Variable,4.6,-,N/A,,Clear,0,2013-09-22 19:53:00
3:53 PM,75.9,46.0,35,29.91,10.0,Variable,4.6,-,N/A,,Clear,0,2013-09-22 20:53:00
4:53 PM,75.9,46.9,36,29.89,10.0,Variable,6.9,-,N/A,,Clear,0,2013-09-22 21:53:00
5:53 PM,73.9,46.9,38,29.90,10.0,SE,3.5,-,N/A,,Clear,130,2013-09-22 22:53:00
6:53 PM,66.0,53.1,63,29.90,10.0,Calm,Calm,-,N/A,,Clear,0,2013-09-22 23:53:00
7:53 PM,62.1,51.1,67,29.90,10.0,Calm,Calm,-,N/A,,Clear,0,2013-09-23 00:53:00
8:53 PM,62.1,50.0,65,29.91,10.0,ENE,3.5,-,N/A,,Clear,70,2013-09-23 01:53:00
9:53 PM,62.1,51.1,67,29.91,10.0,East,4.6,-,N/A,,Clear,100,2013-09-23 02:53:00
10:53 PM,60.1,51.1,72,29.92,10.0,ESE,3.5,-,N/A,,Clear,110,2013-09-23 03:53:00
11:53 PM,57.9,51.1,78,29.92,10.0,Calm,Calm,-,N/A,,Clear,0,2013-09-23 04:53:00